FW5156 Weather Reports


Display with metric or nautical units.
time (UTC)temp
F
wind
direction
speed
MPH
gust
MPH
rain 1hr
in
rain 24hr
in
rain mn
in
humidity
%
barometer
mb
20260901195537 95 0.0 2.0 0.00 0.00 0.00 56 1017.5
20260901194517 94 225 1.0 8.0 0.00 0.00 0.00 57 1017.6
20260901193517 94 0 1.0 4.0 0.00 0.00 0.00 57 1017.7
20260901192517 94 0.0 5.0 0.00 0.00 0.00 57 1017.8
20260901191517 94 225 1.0 6.0 0.00 0.00 0.00 56 1017.9
20260901190517 93 203 1.0 9.0 0.00 0.00 0.00 57 1018.0
20260901185517 94 270 1.0 5.0 0.00 0.00 0.00 56 1018.1
20260901184537 93 293 1.0 7.0 0.00 0.00 0.00 58 1018.2
20260901183517 93 293 1.0 5.0 0.00 0.00 0.00 59 1018.2
20260901182517 93 225 1.0 4.0 0.00 0.00 0.00 60 1018.4
20260901181517 93 225 1.0 6.0 0.00 0.00 0.00 60 1018.4
20260901180517 92 270 1.0 7.0 0.00 0.00 0.00 59 1018.4
20260901175517 92 0.0 1.0 0.00 0.00 0.00 63 1018.5
20260901174517 92 293 1.0 6.0 0.00 0.00 0.00 62 1018.5
20260901173517 92 0 1.0 10.0 0.00 0.00 0.00 61 1018.6
20260901172517 92 0.0 7.0 0.00 0.00 0.00 62 1018.6
20260901171537 90 0.0 3.0 0.00 0.00 0.00 65 1018.7
20260901170537 90 225 1.0 7.0 0.00 0.00 0.00 63 1018.7
20260901165517 90 270 1.0 7.0 0.00 0.00 0.00 64 1018.7
20260901164517 89 293 2.0 7.0 0.00 0.00 0.00 63 1018.8
20260901163517 89 315 1.0 6.0 0.00 0.00 0.00 64 1018.8
20260901162517 88 0.0 5.0 0.00 0.00 0.00 66 1018.9
20260901161537 88 203 1.0 6.0 0.00 0.00 0.00 66 1018.9
20260901160517 88 225 1.0 9.0 0.00 0.00 0.00 69 1019.1
20260901155537 87 203 1.0 8.0 0.00 0.00 0.00 70 1019.0
20260901154537 87 293 1.0 5.0 0.00 0.00 0.00 71 1019.0
20260901153517 86 293 1.0 7.0 0.00 0.00 0.00 72 1019.0
20260901152517 85 203 2.0 8.0 0.00 0.00 0.00 71 1019.0
20260901151517 85 225 1.0 5.0 0.00 0.00 0.00 74 1019.0
20260901150517 84 0.0 3.0 0.00 0.00 0.00 75 1019.0
20260901145517 83 225 1.0 4.0 0.00 0.00 0.00 76 1019.1
20260901144517 83 270 1.0 6.0 0.00 0.00 0.00 77 1019.0
20260901143517 81 203 1.0 5.0 0.00 0.00 0.00 78 1019.0
20260901142517 81 248 1.0 4.0 0.00 0.00 0.00 78 1019.0
20260901141537 81 315 1.0 10.0 0.00 0.00 0.00 79 1018.9
20260901140517 80 270 1.0 5.0 0.00 0.00 0.00 80 1019.0
20260901135517 80 0.0 4.0 0.00 0.00 0.00 81 1019.0
20260901134517 79 293 1.0 5.0 0.00 0.00 0.00 82 1018.9
20260901133517 78 270 1.0 5.0 0.00 0.00 0.00 83 1018.9
20260901132517 77 203 1.0 5.0 0.00 0.00 0.00 85 1019.1
20260901131517 77 0.0 4.0 0.00 0.00 0.00 86 1019.1
20260901130517 76 225 1.0 5.0 0.00 0.00 0.00 87 1019.3
20260901125537 75 225 1.0 4.0 0.00 0.00 0.00 88 1019.2
20260901124517 75 248 1.0 4.0 0.00 0.00 0.00 88 1019.3
20260901123517 74 270 1.0 6.0 0.00 0.00 0.00 89 1019.1
20260901122517 74 270 1.0 5.0 0.00 0.00 0.00 88 1018.9
20260901121517 74 248 1.0 7.0 0.00 0.00 0.00 89 1018.8
20260901120517 73 225 1.0 4.0 0.00 0.00 0.00 89 1018.7
20260901115517 73 0.0 2.0 0.00 0.00 0.00 89 1018.7
20260901114517 73 0.0 2.0 0.00 0.00 0.00 89 1018.7
20260901113517 73 315 1.0 4.0 0.00 0.00 0.00 89 1018.5
20260901112517 73 0.0 3.0 0.00 0.00 0.00 89 1018.5
20260901111517 73 0.0 3.0 0.00 0.00 0.00 89 1018.5
20260901105517 73 0.0 1.0 0.00 0.00 0.00 88 1018.4
20260901104517 73 0.0 0.0 0.00 0.00 0.00 88 1018.4
20260901103538 73 0.0 4.0 0.00 0.00 0.00 88 1018.3
20260901102517 73 0.0 2.0 0.00 0.00 0.00 88 1018.2
20260901101537 74 0.0 1.0 0.00 0.00 0.00 88 1018.2
20260901100517 74 0.0 4.0 0.00 0.00 0.00 87 1018.2
20260901095557 74 0.0 0.0 0.00 0.00 0.00 87 1018.2
20260901093518 74 0.0 4.0 0.00 0.00 0.00 86 1018.2
20260901092517 74 0.0 0.0 0.00 0.00 0.00 86 1018.1
20260901091517 75 0.0 1.0 0.00 0.00 0.00 85 1018.1
20260901090517 75 0.0 4.0 0.00 0.00 0.00 85 1018.0
20260901085557 75 0.0 0.0 0.00 0.00 0.00 85 1018.0
20260901084517 75 0.0 1.0 0.00 0.00 0.00 85 1018.0
20260901083517 75 0.0 1.0 0.00 0.00 0.00 85 1018.0
20260901082517 75 0.0 2.0 0.00 0.00 0.00 85 1018.0
20260901081517 75 0.0 2.0 0.00 0.00 0.00 84 1017.8
20260901080517 75 0.0 2.0 0.00 0.00 0.00 84 1017.9
20260901075517 76 315 1.0 4.0 0.00 0.00 0.00 84 1017.8
20260901074517 76 0.0 4.0 0.00 0.00 0.00 84 1017.8
20260901073517 76 0.0 4.0 0.00 0.00 0.00 84 1017.8
20260901072518 76 0.0 5.0 0.00 0.00 0.00 84 1017.8
20260901071517 76 0.0 3.0 0.00 0.00 0.00 84 1017.8
20260901070517 76 0.0 3.0 0.00 0.00 0.00 84 1017.8
20260901065518 76 0.0 3.0 0.00 0.00 0.00 84 1018.0
20260901064517 76 0.0 5.0 0.00 0.00 0.00 84 1018.0
20260901063517 76 0.0 3.0 0.00 0.00 0.00 84 1018.1
20260901062517 76 0.0 4.0 0.00 0.00 0.00 84 1018.1
20260901061517 77 0.0 1.0 0.00 0.00 0.00 84 1018.1
20260901060517 77 0.0 0.0 0.00 0.00 0.00 83 1018.3
20260901055517 77 0.0 2.0 0.00 0.00 0.00 83 1018.2
20260901054517 77 0.0 3.0 0.00 0.00 0.00 84 1018.2
20260901053517 77 203 1.0 6.0 0.00 0.00 0.00 84 1018.1
20260901052517 77 0.0 2.0 0.00 0.00 0.00 85 1018.1
20260901051537 77 0.0 2.0 0.00 0.00 0.00 85 1018.1
20260901050517 77 0.0 1.0 0.00 0.00 0.00 85 1018.2
20260901045517 77 0.0 3.0 0.00 0.00 0.00 85 1018.0
20260901044517 77 0.0 1.0 0.00 0.00 0.00 86 1018.0
20260901043517 77 0.0 0.0 0.00 0.00 0.00 85 1018.1
20260901042517 77 0.0 2.0 0.00 0.00 0.00 85 1018.0
20260901041537 78 0.0 0.0 0.00 0.00 0.00 85 1018.1
20260901040517 78 0.0 0.0 0.00 0.00 0.00 85 1018.1
20260901035517 78 0.0 0.0 0.00 0.00 0.00 85 1017.9
20260901034517 78 0.0 0.0 0.00 0.00 0.00 85 1017.9
20260901033517 78 0.0 0.0 0.00 0.00 0.00 84 1018.0
20260901031517 79 0.0 0.0 0.00 0.00 0.00 84 1018.0
20260901030517 79 0.0 0.0 0.00 0.00 0.00 83 1018.0
20260901025517 79 0.0 1.0 0.00 0.00 0.00 83 1018.0
20260901024517 79 0.0 0.0 0.00 0.00 0.00 83 1017.9
20260901023517 79 0.0 0.0 0.00 0.00 0.00 82 1018.0
20260901022517 79 0.0 0.0 0.00 0.00 0.00 82 1017.9
20260901021517 80 0.0 0.0 0.00 0.00 0.00 81 1018.1
20260901020517 80 0.0 0.0 0.00 0.00 0.00 81 1017.9
20260901015537 80 0.0 0.0 0.00 0.00 0.00 81 1017.7
20260901014517 80 0.0 0.0 0.00 0.00 0.00 81 1017.6
20260901013537 80 0.0 0.0 0.00 0.00 0.00 80 1017.4
20260901012517 81 0.0 0.0 0.00 0.00 0.00 80 1017.4
20260901011517 81 0.0 0.0 0.00 0.00 0.00 80 1017.1
20260901010517 81 0.0 0.0 0.00 0.00 0.00 79 1016.9
20260901005517 81 0.0 0.0 0.00 0.00 0.00 79 1017.0
20260901004517 82 0.0 1.0 0.00 0.00 0.00 78 1016.8
20260901003517 82 0.0 0.0 0.00 0.00 0.00 78 1016.8
20260901002517 83 0.0 0.0 0.00 0.00 0.00 78 1016.9
20260901001537 83 0.0 0.0 0.00 0.00 0.00 77 1017.0
20260901000517 84 0.0 0.0 0.00 0.00 0.00 76 1016.9
20260831235517 84 0.0 0.0 0.00 0.00 0.00 75 1017.0
20260831234517 85 0.0 0.0 0.00 0.00 0.00 74 1017.0
20260831233517 86 0.0 0.0 0.00 0.00 0.00 73 1017.1
20260831232517 86 0.0 0.0 0.00 0.00 0.00 72 1017.0
20260831231517 87 0.0 0.0 0.00 0.00 0.00 70 1017.3
20260831230517 89 0.0 1.0 0.00 0.00 0.00 68 1017.4
20260831225517 90 0.0 0.0 0.00 0.00 0.00 66 1017.4
20260831224517 91 0.0 0.0 0.00 0.00 0.00 64 1017.5
20260831223537 92 0.0 0.0 0.00 0.00 0.00 64 1017.4
20260831222517 92 0.0 1.0 0.00 0.00 0.00 61 1017.4
20260831221517 93 0.0 1.0 0.00 0.00 0.00 59 1017.6
20260831220557 93 0.0 0.0 0.00 0.00 0.00 59 1017.5
20260831215537 93 0.0 2.0 0.00 0.00 0.00 59 1017.5
20260831214517 93 0.0 4.0 0.00 0.00 0.00 58 1017.6
20260831213517 93 270 1.0 5.0 0.00 0.00 0.00 57 1017.7
20260831212537 93 0.0 2.0 0.00 0.00 0.00 58 1017.6
20260831211517 93 0.0 4.0 0.00 0.00 0.00 55 1017.8
20260831210517 93 0.0 1.0 0.00 0.00 0.00 57 1017.9
20260831205537 92 248 1.0 4.0 0.00 0.00 0.00 56 1017.9
20260831204517 93 0.0 5.0 0.00 0.00 0.00 60 1017.9
20260831203517 93 0.0 3.0 0.00 0.00 0.00 58 1018.0
20260831202517 93 180 1.0 5.0 0.00 0.00 0.00 55 1018.1
20260831201537 92 248 1.0 8.0 0.00 0.00 0.00 55 1018.3
20260831200537 93 0.0 3.0 0.00 0.00 0.00 56 1018.5